Regional Weather Roundup
Issued by NWS

Home | Current Version | Previous Version | Graphics & Text | Print | Product List | Glossary On
Versions: 1 2 3 4 5 6 7 8 9 10 11 12 13 14 15 16 17 18 19 20 21 22 23 24 25 26 27 28 29 30 31 32 33 34 35 36 37 38 39 40 41 42 43 44 45 46 47 48 49 50
000
ASUS45 KABQ 211310
RWRNM
WEATHER ROUNDUP FOR NEW MEXICO
NATIONAL WEATHER SERVICE ALBUQUERQUE NM
700 AM MDT SUN SEP 21 2014

NOTE: "FAIR" MEANS FEW OR NO CLOUDS BELOW 12,000 FEET AGL WITH NO
       SIGNIFICANT WEATHER OR OBSTRUCTIONS TO VISION.

      THIS PRODUCT IS RELEASED AS TWO VERSIONS.  ONE VERSION NEAR
      THE TOP OF THE HOUR CONTAINING PRELIMINARY DATA FROM ALBUQUERQUE
      AND OTHER STATIONS.  A FINAL VERSION WITH ADDITIONAL DATA IS
      ISSUED ABOUT 10 MINUTES AFTER THE HOUR.

NMZ501-503-504-510>518-211400-
NORTHWEST PLATEAU/NORTHCENTRAL MOUNTAINS

CITY           SKY/WX    TMP DP  RH WIND       PRES   REMARKS
FARMINGTON     CLOUDY    63  53  70 E10       30.28R
LOS ALAMOS     CLEAR     58  53  84 S7        30.41R
SANTA FE       CLEAR     56  52  86 S3        30.35R
TAOS           CLEAR     61  46  59 E10       30.41R
ANGEL FIRE     FAIR      41  38  89 CALM      30.53R

$$
NMZ402-403-502-505>509-211400-
WESTCENTRAL MOUNTAINS/SOUTHWEST MOUNTAINS

CITY           SKY/WX    TMP DP  RH WIND       PRES   REMARKS
GALLUP         PTCLDY    57  45  64 E8        30.29R
GRANTS         CLEAR     52  48  87 SE5       30.35R
SILVER CITY    MOCLDY    64  61  88 NE6       30.24R

$$
NMZ407-409-411-412-211400-
SOUTHERN DESERTS

CITY           SKY/WX    TMP DP  RH WIND       PRES   REMARKS
LORDSBURG      FAIR      66  63  88 MISG      30.13R
DEMING         CLOUDY    68  63  84 NE12      30.15R
LAS CRUCES     MOCLDY    67  63  85 NW5       30.18R
HOLLOMAN AFB   PTCLDY    64  61  90 NE3       30.15R
ALAMOGORDO     PTCLDY    64  59  82 NE6       30.17R
T OR C         MOCLDY    65  62  90 N5        30.20R

$$
NMZ519>523-211400-
CENTRAL VALLEYS/CENTRAL HIGHLANDS

CITY           SKY/WX    TMP DP  RH WIND       PRES   REMARKS
ALBUQUERQUE    PTCLDY    67  55  65 E16       30.29R
DOUBLE EAGLE   PTCLDY    63  55  77 SE14      30.31R
MORIARTY ARPT  FOG       53  51  94 CALM      30.37R VSB<1/4
CLINES CORNERS MOCLDY    57  55  93 E10       30.39R
BELEN          FAIR      58  56  94 SW6       30.27R
SOCORRO        FAIR      66  59  78 N5        30.25R

$$
NMZ524>526-539-540-211400-
SOUTHCENTRAL MOUNTAINS

CITY           SKY/WX    TMP DP  RH WIND       PRES   REMARKS
RUIDOSO        CLOUDY    57  57 100 CALM      30.37R FOG

$$
NMZ527>531-211400-
NORTHEAST HIGHLANDS/NORTHEAST PLAINS

CITY           SKY/WX    TMP DP  RH WIND       PRES   REMARKS
LAS VEGAS      PTCLDY    50  48  93 N6        30.42R
RATON          MOCLDY    61  52  72 N9        30.40R
CLAYTON        CLOUDY    64  58  80 N12       30.33R

$$
NMZ532>537-211400-
EASTCENTRAL PLAINS

CITY           SKY/WX    TMP DP  RH WIND       PRES   REMARKS
TUCUMCARI      MOCLDY    63  60  90 CALM      30.25R
CANNON AFB     CLOUDY    66 N/A N/A NE5       30.26R
CLOVIS AIRPORT   N/A     66  64  94 NE8       30.28R

$$
NMZ028-029-538-211400-
SOUTHEAST PLAINS

CITY           SKY/WX    TMP DP  RH WIND       PRES   REMARKS
ROSWELL        CLOUDY    68  64  87 NE9       30.16R
CARLSBAD       CLOUDY    70  32  24 NE5       30.12R
HOBBS          LGT RAIN  68  68 100 E10       30.18R FOG


$$


USA.gov is the U.S. government's official web portal to all federal, state and local government web resources and services.